Location: �chemir�
(47.5500°N, 0.1667°W)
Time: 20:52:59
(UTC+01:00)

ISS - Visible Passes

Search period start: 12 November 2018 00:00
Search period end: 22 November 2018 00:00
Orbit: 402 x 409 km, 51.6° (Epoch: 13 November)

Date Brightness Start Highest point End Pass type
(mag) Time Alt. Az. Time Alt. Az. Time Alt. Az.
12 Nov -3.2 05:51:45 53° SE 05:51:45 53° SE 05:54:22 10° ESE visible
12 Nov -1.7 07:25:09 10° W 07:27:09 15° SW 07:29:09 10° S visible
13 Nov -0.4 05:02:03 12° ESE 05:02:03 12° ESE 05:02:18 10° ESE visible
13 Nov -2.5 06:34:44 24° WSW 06:35:19 25° SW 06:38:04 10° SSE visible
14 Nov -1.7 05:45:05 22° SSE 05:45:05 22° SSE 05:46:29 10° SE visible
15 Nov -1.3 06:28:13 11° SSW 06:28:13 11° SSW 06:28:48 10° SSW visible
